Weather in Novokangyshevo

Russia / Republic of Bashkortostan     55°33′12″N   55°02′47″E
temp.,
°C
wind,
m/s
gust,
m/s
humid.,
%
clouds,
%
prec.,
mm/h
press.,
hPa
HPBL,
m
28 february, sun
sun2823:00−10ese71193100 2.4 1001413
02:00−10ese5995100 0.1 1000304
05:00−10ene4795100 0.8 1000252
08:00−11ne359695 0.3 1001114
11:00−10nne469595 0.5 1001235
14:00−9nne469397 0.2 1002353
17:00−8n479398 0.4 1004469
20:00−10nnw489596 0.2 1006249
1 march, mon
mon123:00−11n489591 0.3 1009253
02:00−13n359696 0.1 1011121
05:00−14nnw369695 0.1 1013204
08:00−17nnw349790 0.1 101481
11:00−16nnw359593 0.1 1016258
14:00−13nw3489100 0.1 1017465
17:00−13wnw4592100 0.1 1018446
20:00−19w349898 0.1 101848
2 march, tue
tue223:00−21wsw339973 0.1 101926
02:00−22sw239877 0.0 101825
05:00−22s449660 0.0 101673
08:00−20s599483 0.0 1013209
11:00−17s7119391 0.0 1011333
14:00−12s71193100 0.1 1007502
17:00−10s71293100 0.8 1005655
20:00−10s61294100 0.9 1003608
3 march, wed
wed323:00−9s61294100 1.8 1002542
02:00−7sse61195100 1.1 999476
05:00−5s5995100 2.0 997392
08:00−5ssw4896100 0.7 996266
11:00−3wsw3596100 1.4 997335
14:00−3nnw5795100 0.8 998489
17:00−4wnw5792100 1.0 999525
20:00−6wnw3896100 0.1 1000227
4 march, thu
thu423:00−6wnw4109596 0.2 1003257
02:00−9nw359795 0.1 100491
05:00−10wnw479694 0.1 1005155
08:00−12wnw599572 0.1 1007250
11:00−11w589486 0.2 1008288
14:00−8w5892100 0.0 1008414
17:00−7wsw5109096 0.0 1008656
20:00−7sw61389100 0.0 1006509